Location: Bottens
(46.6171°N, 6.6605°E)
Time: 00:26:56
(UTC+00:00)

Cosmos 1408 - Pass Details

Date: 20 June 2021
Orbit: 466 x 492 km, 82.6° (Epoch: 04 August)

Event Time Altitude Azimuth Distance (km) Brightness Sun altitude
Exits shadow 00:19:14 61° 199° (SSW) 561 2.5 -19.2°
Maximum altitude 00:19:50 84° 277° (W) 499 2.5 -19.2°
Drops below altitude 10° 00:23:33 10° 8° (N) 1,695 6.6 -19.1°
Sets 00:25:41 0° 9° (N) 2,584 7.9 -19.0°
